Weather History for Denton, TX

Change the Weather History Date:

Sunday, May 19, 2013

  Actual Average Record
Temperature  
Mean Temperature 79 °F -  
Max Temperature 88 °F 82 °F 98 °F (2008)
Min Temperature 71 °F 60 °F 48 °F (2002)
Cooling Degree Days 14    
Growing Degree Days 29 (Base 50)    
Moisture  
Dew Point 67 °F    
Average Humidity 66    
Maximum Humidity 84    
Minimum Humidity 55    
Precipitation  
Precipitation 0.00 in - - ()
Sea Level Pressure  
Sea Level Pressure 29.72 in    
Wind  
Wind Speed 19 mph (South)    
Max Wind Speed 28 mph    
Max Gust Speed 39 mph    
Visibility 10 miles    
Events      
Averages and records for this station are not official NWS values.
T = Trace of Precipitation, MM = Missing Value Source: NWS Daily Summary

Daily Weather History Graph

Daily Weather History Graph

Search for Another Location

Airport:

Trip Planner

Search our weather history database for the weather conditions in past years. The results will help you decide how hot, cold, wet, or windy it might be!

Date:

Astronomy

May. 19, 2013 Rise Set
Actual Time 6:26 AM CDT 8:24 PM CDT
Civil Twilight 5:58 AM CDT 8:52 PM CDT
Nautical Twilight 5:25 AM CDT 9:25 PM CDT
Astronomical Twilight 4:49 AM CDT 10:01 PM CDT
Moon 2:47 PM CDT (5/19) 2:31 AM CDT (5/19)
Length of Visible Light 14h 53m
Length of Day
13h 58m
Waxing Gibbous, 65% of the Moon is Illuminated
May 19
Waxing Gibbous
May 24
Full
May 31
Last Quarter
Jun 8
New
Jun 16
First Quarter

Hourly Weather History & Observations

Time (CDT) Temp. Heat Index Dew Point Humidity Pressure Visibility Wind Dir Wind Speed Gust Speed Precip Events Conditions
12:53 AM 78.1 °F - 66.0 °F 66% 29.77 in 10.0 mi South 17.3 mph 25.3 mph N/A   Clear
1:53 AM 75.9 °F - 64.9 °F 69% 29.76 in 10.0 mi South 18.4 mph 25.3 mph N/A   Clear
2:53 AM 75.0 °F - 64.9 °F 71% 29.75 in 10.0 mi South 17.3 mph 26.5 mph N/A   Clear
3:53 AM 73.9 °F - 64.0 °F 71% 29.74 in 10.0 mi South 21.9 mph 29.9 mph N/A   Clear
4:53 AM 73.0 °F - 64.0 °F 73% 29.74 in 10.0 mi South 15.0 mph 23.0 mph N/A   Clear
5:53 AM 71.1 °F - 64.0 °F 78% 29.75 in 10.0 mi South 16.1 mph - N/A   Clear
7:53 AM 71.1 °F - 66.0 °F 84% 29.78 in 10.0 mi South 18.4 mph 25.3 mph N/A   Scattered Clouds
8:53 AM 73.9 °F - 66.0 °F 76% 29.78 in 10.0 mi South 17.3 mph 31.1 mph N/A   Scattered Clouds
9:53 AM 77.0 °F - 66.9 °F 71% 29.78 in 10.0 mi South 17.3 mph 28.8 mph N/A   Scattered Clouds
10:53 AM 79.0 °F - 66.9 °F 66% 29.76 in 10.0 mi South 20.7 mph 33.4 mph N/A   Partly Cloudy
11:53 AM 82.0 °F 84.9 °F 68.0 °F 62% 29.74 in 10.0 mi South 20.7 mph 32.2 mph N/A   Clear
12:53 PM 84.0 °F 87.0 °F 68.0 °F 58% 29.73 in 10.0 mi South 19.6 mph 28.8 mph N/A   Partly Cloudy
2:53 PM 84.9 °F 89.4 °F 70.0 °F 61% 29.69 in 10.0 mi South 18.4 mph 25.3 mph N/A   Mostly Cloudy
3:53 PM 86.0 °F 90.7 °F 70.0 °F 59% 29.68 in 10.0 mi South 19.6 mph 28.8 mph N/A   Mostly Cloudy
4:53 PM 87.1 °F 91.3 °F 69.1 °F 55% 29.65 in 10.0 mi SSE 24.2 mph 33.4 mph N/A   Scattered Clouds
5:53 PM 86.0 °F 90.1 °F 69.1 °F 57% 29.64 in 9.0 mi South 27.6 mph 39.1 mph N/A   Partly Cloudy
6:53 PM 86.0 °F 90.1 °F 69.1 °F 57% 29.63 in 10.0 mi South 18.4 mph 33.4 mph N/A   Partly Cloudy
7:53 PM 84.0 °F 87.0 °F 68.0 °F 58% 29.64 in 10.0 mi South 19.6 mph 28.8 mph N/A   Clear
8:53 PM 82.9 °F 85.8 °F 68.0 °F 60% 29.66 in 10.0 mi South 15.0 mph 24.2 mph N/A   Clear
9:53 PM 82.0 °F 84.9 °F 68.0 °F 62% 29.68 in 10.0 mi South 17.3 mph 27.6 mph N/A   Clear
11:53 PM 80.1 °F 82.1 °F 66.0 °F 62% 29.72 in 10.0 mi South 20.7 mph 29.9 mph N/A   Clear